User: anonymous   Login
Location: Prairie State College
(41.5244°N, 87.6382°W)
Time: 02:08:27
(UTC-06:00)
Language:

ARGOS Delta rocket - Orbit

View from above orbital plane
View from above orbital plane
View from above satellite
View from above satellite

Ground track
Ground track

The orbit data is extracted from the following two-line orbital elements,

1 25637U 99008D   17345.62619929 +.00000067 +00000-0 +23565-4 0  9991
2 25637 096.4569 204.0339 0144270 076.7698 342.2013 14.46550369990978
Epoch (UTC): 11 December 2017 15:01:43
Eccentricity: 0.0144270
inclination: 96.4569°
perigee height: 634 km
apogee height: 839 km
right ascension of ascending node: 204.0339°
argument of perigee: 76.7698°
revolutions per day: 14.46550369
mean anomaly at epoch: 342.2013°
orbit number at epoch: 99097

The dashed part of the orbit path shows where the satellite is in the earth's shadow,  

DLR